Weather History for Wolf Point, MT

Change the Weather History Date:

Thursday, January 31, 2013

  Actual Average Record
Temperature  
Mean Temperature -9 °F -  
Max Temperature 2 °F 26 °F 50 °F (2012)
Min Temperature -21 °F 1 °F -27 °F (2011)
Degree Days  
Heating Degree Days 74    
Cooling Degree Days 0    
Moisture  
Dew Point -18 °F    
Average Humidity 67    
Maximum Humidity 76    
Minimum Humidity 61    
Precipitation  
Precipitation 0.00 in 0.00 in 0.00 in (2015)
Month to date precipitation 0.11 0.31  
Year to date precipitation 0.11 0.31  
Sea Level Pressure  
Sea Level Pressure 30.43 in    
Wind  
Wind Speed 6 mph (WNW)    
Max Wind Speed 9 mph    
Max Gust Speed -    
Visibility 10 miles    
Events      
T = Trace of Precipitation, MM = Missing Value Source: NWS Daily Summary

Daily Weather History Graph

Daily Weather History Graph

Search for Another Location

Airport:

Trip Planner

Search our weather history database for the weather conditions in past years. The results will help you decide how hot, cold, wet, or windy it might be!

Date:

Astronomy

Jan. 31, 2013 Rise Set
Actual Time 7:31 AM MST 5:01 PM MST
Civil Twilight 6:57 AM MST 5:34 PM MST
Nautical Twilight 6:20 AM MST 6:11 PM MST
Astronomical Twilight 5:43 AM MST 6:48 PM MST
Moon 10:35 PM MST (1/31) 9:06 AM MST (1/31)
Length of Visible Light 10h 36m
Length of Day
9h 30m
Waning Gibbous, 79% of the Moon is Illuminated
Jan 31
Waning Gibbous
Feb 3
Last Quarter
Feb 10
New
Feb 17
First Quarter
Feb 25
Full

Hourly Weather History & Observations

Time (MST) Temp. Windchill Dew Point Humidity Pressure Visibility Wind Dir Wind Speed Gust Speed Precip Events Conditions
12:53 AM -11.9 °F -27.3 °F -22.0 °F 61% 30.45 in 10.0 mi NNW 6.9 mph - N/A   Scattered Clouds
1:53 AM -15.0 °F -31.0 °F -24.0 °F 64% 30.49 in 10.0 mi West 6.9 mph - N/A   Clear
2:53 AM -16.1 °F -33.7 °F -25.1 °F 64% 30.50 in 10.0 mi WNW 8.1 mph - N/A   Clear
3:53 AM -17.0 °F -31.7 °F -25.1 °F 67% 30.52 in 10.0 mi West 5.8 mph - N/A   Clear
4:53 AM -18.0 °F -37.5 °F -25.1 °F 70% 30.53 in 10.0 mi WNW 9.2 mph - N/A   Clear
5:53 AM -18.9 °F -34.0 °F -26.0 °F 70% 30.54 in 10.0 mi West 5.8 mph - N/A   Clear
6:53 AM -20.0 °F -33.3 °F -27.0 °F 70% 30.56 in 10.0 mi West 4.6 mph - N/A   Clear
7:53 AM -20.0 °F - -27.0 °F 70% 30.57 in 10.0 mi Calm Calm - N/A   Clear
8:53 AM -17.0 °F -31.7 °F -25.1 °F 67% 30.57 in 10.0 mi WSW 5.8 mph - N/A   Clear
9:53 AM -15.0 °F -33.7 °F -23.1 °F 67% 30.57 in 10.0 mi West 9.2 mph - N/A   Clear
10:53 AM -13.0 °F -28.6 °F -22.0 °F 64% 30.56 in 10.0 mi WSW 6.9 mph - N/A   Clear
11:53 AM -11.0 °F -26.2 °F -20.0 °F 64% 30.52 in 10.0 mi WSW 6.9 mph - N/A   Clear
12:53 PM -9.0 °F -20.4 °F -18.9 °F 62% 30.50 in 10.0 mi West 4.6 mph - N/A   Clear
1:53 PM -7.1 °F - -17.0 °F 62% 30.45 in 10.0 mi Calm Calm - N/A   Overcast
2:53 PM -5.1 °F - -15.0 °F 62% 30.43 in 10.0 mi Calm Calm - N/A   Overcast
3:53 PM -4.0 °F -14.6 °F -14.1 °F 62% 30.41 in 10.0 mi ENE 4.6 mph - N/A   Overcast
4:53 PM -4.0 °F -14.6 °F -13.0 °F 65% 30.37 in 10.0 mi ENE 4.6 mph - N/A   Overcast
5:53 PM -2.9 °F -15.0 °F -11.9 °F 65% 30.34 in 10.0 mi ENE 5.8 mph - N/A   Overcast
6:53 PM -2.9 °F -15.0 °F -11.0 °F 68% 30.31 in 10.0 mi ENE 5.8 mph - N/A   Overcast
7:53 PM -2.0 °F -12.2 °F -9.0 °F 72% 30.29 in 10.0 mi East 4.6 mph - N/A   Overcast
8:53 PM -0.9 °F -12.7 °F -8.0 °F 72% 30.27 in 10.0 mi East 5.8 mph - N/A   Overcast
9:53 PM -0.0 °F -7.9 °F -7.1 °F 72% 30.23 in 10.0 mi East 3.5 mph - N/A   Overcast
10:53 PM 1.0 °F - -6.0 °F 72% 30.18 in 10.0 mi Calm Calm - N/A   Overcast
11:53 PM 1.9 °F -9.2 °F -4.0 °F 76% 30.16 in 10.0 mi West 5.8 mph - N/A   Overcast